Theta_e
314 314 313 311 309 308 310 313 315 315 317 317 316 316 317 316 316 317 315 316 318 320 319 318 319 317 315 312 310 310 316 315 313 311 309 303 303 300 298 300 297 297 297 296 295
313 313 313 311 309 310 314 315 315 317 316 316 316 316 317 318 316 315 315 316 319 320 318 318 315 313 312 311 311 314 317 315 309 306 306 303 303 301 301 299 298 296 295 294 294
313 312 312 310 312 315 315 315 316 316 315 316 316 316 318 318 314 314 316 317 320 320 320 316 313 311 312 310 308 308 314 307 305 304 304 303 301 300 301 301 299 298 296 295 294
312 311 311 312 315 314 316 316 316 315 316 317 317 317 315 315 316 315 316 318 319 318 318 314 310 311 310 311 306 309 306 306 306 303 303 304 301 301 301 302 299 297 296 295 294
311 311 311 313 314 316 316 315 315 316 316 316 316 316 315 311 314 315 317 319 318 318 315 312 311 310 311 308 307 307 304 303 303 302 301 301 302 302 300 297 297 296 296 295 294
311 311 312 314 315 315 315 315 315 316 316 316 316 316 315 314 314 314 317 317 316 315 311 311 310 308 305 304 306 303 303 302 302 302 302 303 301 300 299 296 297 296 296 295 294
310 312 313 314 315 315 315 315 316 316 316 316 316 316 312 313 314 314 315 314 315 315 310 310 309 309 305 305 302 304 306 304 303 302 302 301 302 302 299 297 297 297 296 295 294
311 312 313 314 315 315 315 315 315 316 316 317 316 316 313 314 314 315 315 314 314 313 311 310 310 305 306 304 306 308 308 313 305 303 301 304 312 301 297 297 298 297 296 295 294
311 313 314 315 315 315 315 315 316 316 316 316 315 314 314 314 314 313 315 314 314 313 312 311 309 307 307 310 312 310 313 313 311 303 302 304 309 301 297 298 298 297 296 295 294
312 314 315 315 315 317 317 314 314 315 315 314 314 311 312 312 312 313 313 314 312 311 311 308 305 307 306 311 312 314 312 310 312 307 302 303 304 300 298 298 299 297 296 295 295
314 314 315 316 317 319 318 318 311 310 312 311 311 311 311 312 312 312 312 312 310 307 310 305 309 310 308 307 309 310 310 310 308 305 305 305 305 305 299 297 298 297 295 295 295
313 314 315 317 317 318 317 315 313 312 312 311 311 311 312 311 312 311 312 310 309 310 308 308 310 308 307 306 308 309 310 309 307 305 305 306 307 305 300 299 299 298 296 295 294
314 315 316 317 317 317 317 318 316 314 310 313 311 311 311 312 311 310 310 308 307 308 306 310 309 308 309 307 306 308 309 309 308 305 304 304 307 304 299 297 296 296 295 294 294
315 316 316 317 317 317 318 318 317 313 307 311 313 312 312 311 312 309 308 310 309 309 309 310 308 308 308 308 306 307 308 307 307 308 310 303 314 307 300 300 298 297 294 295 294
316 318 318 318 316 315 318 318 317 311 316 312 313 313 310 312 311 311 308 309 311 311 310 311 309 307 307 308 308 308 307 307 307 307 307 307 309 310 300 305 302 298 295 294 293
317 318 319 319 318 317 317 316 312 314 317 314 313 313 312 310 311 308 307 306 307 309 309 309 307 308 308 307 307 305 306 305 305 307 312 307 308 312 308 305 302 297 295 294 292
317 317 317 318 317 316 316 314 314 317 313 315 314 313 312 312 311 308 307 306 310 313 310 309 310 307 305 306 304 305 307 313 314 314 314 305 307 310 305 300 299 299 295 293 291
317 317 316 316 316 316 315 314 320 315 313 313 313 312 313 312 311 309 309 308 306 307 307 308 307 308 305 305 305 306 306 311 314 313 311 303 309 311 299 295 294 294 293 292 291
317 317 317 316 315 316 310 316 316 313 312 313 314 315 314 313 312 311 310 309 308 306 309 307 307 307 306 304 304 306 307 303 305 302 305 306 305 304 296 296 294 293 292 292 290
317 317 316 316 316 315 312 316 314 312 313 313 315 314 315 314 314 313 312 309 309 305 304 306 309 308 307 305 303 304 301 308 305 312 313 309 306 310 305 302 296 294 293 292 290
317 311 316 316 315 312 312 313 313 311 312 313 313 314 313 313 312 312 312 308 306 305 303 303 305 306 306 307 307 304 304 300 302 304 310 309 313 303 303 301 299 296 293 292 290
316 313 316 316 313 307 313 312 311 312 312 314 312 312 312 311 313 312 312 310 304 303 306 303 303 306 306 302 301 303 304 303 308 307 300 302 307 299 298 297 296 296 292 291 289
315 313 315 315 313 312 311 313 312 313 313 313 313 312 312 312 314 312 311 304 303 303 304 303 304 308 311 306 302 303 302 299 298 299 302 306 311 296 294 295 295 294 291 290 287
311 314 309 309 307 311 313 313 314 311 313 312 312 311 312 314 312 312 310 304 303 304 306 303 302 307 312 311 305 305 302 299 301 303 303 303 307 307 301 297 295 292 291 289 285
312 316 308 313 314 311 310 312 313 314 311 310 312 311 311 312 313 312 310 306 305 307 301 302 306 303 303 303 303 304 305 300 300 302 308 308 302 307 305 300 296 292 289 286 284
314 314 308 310 309 310 311 311 312 312 311 312 312 311 309 310 310 311 310 308 308 303 301 300 307 302 304 302 302 303 302 303 300 300 299 302 303 304 298 291 291 291 290 288 285
312 311 310 311 310 311 312 312 312 310 310 308 310 310 311 310 307 304 302 301 305 303 302 302 303 304 310 303 303 309 306 302 302 299 300 305 308 297 297 294 293 291 290 289 286
Wind_Speed
7 6 6 8 7 7 9 9 9 8 6 6 8 8 7 10 21 23 19 17 13 7 4 6 10 9 16 6 8 2 5 4 7 8 6 8 4 2 3 5 2 2 3 6 21
7 6 8 8 9 7 10 9 8 6 4 6 8 9 6 7 6 22 24 18 6 5 5 4 6 12 6 6 5 6 4 3 2 4 6 9 3 9 4 4 3 5 11 16 16
6 6 8 9 10 8 9 8 6 5 6 7 7 8 6 6 5 7 25 16 7 8 9 8 10 6 6 5 8 5 4 3 4 4 10 8 5 3 10 4 7 13 14 14 12
7 7 9 11 8 9 8 5 4 6 7 7 6 6 11 4 3 14 22 9 8 6 6 8 7 5 5 5 4 7 7 4 3 4 5 8 9 5 3 1 7 18 19 14 12
7 8 9 9 10 8 4 4 5 6 8 8 7 4 3 7 4 17 14 8 9 4 11 4 6 5 5 4 3 7 2 5 6 7 6 7 3 4 3 1 14 18 15 13 12
9 11 10 11 8 5 4 5 5 7 9 10 5 7 6 8 7 19 11 16 20 25 19 12 5 9 8 5 5 3 7 6 3 3 4 3 2 0 3 8 13 14 12 13 13
10 11 11 8 4 3 3 4 4 5 7 7 6 17 15 3 5 8 24 25 16 14 10 8 8 6 6 5 5 5 5 2 2 3 2 4 3 6 9 13 13 12 11 11 11
11 12 9 5 4 3 2 3 4 5 4 4 6 7 4 3 8 12 9 13 18 19 22 16 18 12 5 5 4 3 3 1 2 4 1 0 5 5 14 16 15 14 11 9 10
11 11 7 5 3 2 2 3 5 6 6 3 3 5 3 1 4 9 9 6 9 12 11 10 9 5 2 4 3 4 1 2 2 6 3 3 4 4 13 15 15 14 12 10 9
11 9 7 5 3 3 2 6 14 6 3 3 6 5 5 2 4 6 4 5 6 2 4 8 5 4 3 3 1 2 1 3 4 4 4 4 15 5 13 15 17 14 12 11 11
10 8 6 4 4 4 1 2 5 6 12 3 0 3 2 3 5 8 6 1 4 8 5 5 6 2 1 1 2 3 2 3 3 4 4 8 13 10 13 14 14 13 12 12 12
9 6 6 3 7 3 3 6 3 5 6 3 1 1 1 2 3 14 9 5 6 3 4 5 2 2 3 2 2 2 2 3 3 3 5 5 15 12 11 12 17 15 13 14 9
6 6 4 4 3 8 10 8 5 5 5 3 1 2 2 4 3 7 5 2 5 4 4 4 2 1 2 2 1 2 2 2 4 1 2 6 7 3 1 4 6 9 8 11 15
5 3 1 3 3 3 4 3 1 4 4 5 3 4 3 1 4 3 6 3 5 3 3 3 2 2 1 1 2 2 1 2 3 2 3 4 5 3 2 7 6 10 11 11 13
4 3 4 4 5 3 1 4 2 2 3 0 3 2 3 5 0 6 7 5 3 3 3 1 1 2 1 1 2 3 3 1 1 1 3 3 1 6 3 4 4 10 11 10 10
3 2 2 3 4 3 2 3 0 5 2 0 1 3 3 6 4 5 5 9 3 3 3 1 1 1 0 1 1 0 1 3 3 2 1 1 1 5 2 3 2 2 9 10 11
2 4 3 3 2 3 2 2 5 3 2 1 1 2 3 4 4 6 5 6 2 1 4 4 1 1 1 1 0 3 4 4 4 3 3 1 1 9 3 2 3 4 6 10 11
1 2 5 5 4 2 2 5 1 1 4 0 2 2 3 2 3 5 3 2 4 2 3 2 3 1 3 2 1 3 2 3 3 3 5 1 5 4 2 2 3 3 5 10 11
2 2 1 3 4 2 5 3 5 5 3 6 2 2 1 1 2 3 2 3 2 1 3 2 2 1 4 1 2 0 3 2 4 1 2 3 6 7 2 4 2 1 7 11 11
1 2 1 2 2 2 4 4 3 2 3 2 5 3 4 2 2 2 3 2 3 1 2 4 2 1 1 2 4 0 4 2 3 2 4 4 5 5 5 5 7 7 10 11 10
1 3 1 1 2 4 3 6 4 3 2 4 6 4 3 4 5 3 4 2 3 3 2 4 2 1 1 4 5 1 0 4 3 2 3 4 7 6 6 4 7 10 12 14 13
3 1 2 3 3 1 3 4 1 3 1 1 3 2 6 6 3 4 6 2 4 5 5 3 4 3 4 1 0 1 4 4 3 4 0 0 7 3 5 6 6 6 10 13 13
3 2 1 2 3 2 2 2 2 4 4 4 4 1 1 5 2 3 3 1 4 5 6 6 0 3 4 2 2 3 4 4 4 2 6 4 7 3 4 6 5 6 8 11 12
2 1 3 4 1 5 4 4 3 2 2 2 3 2 3 2 1 5 4 3 2 3 3 3 3 5 6 5 3 4 5 5 4 3 4 8 9 13 6 9 6 6 9 12 12
3 2 2 1 2 2 4 4 4 5 2 3 1 5 6 4 3 4 3 1 1 4 2 3 5 4 6 8 4 6 7 9 9 6 8 4 7 17 13 7 5 9 10 12 12
3 3 1 1 0 4 3 7 9 4 7 5 5 6 6 6 7 8 7 5 6 2 5 1 2 2 5 2 6 6 9 11 11 4 12 19 22 18 7 1 4 8 13 15 13
2 2 3 1 2 3 4 5 6 6 4 0 5 5 5 5 4 2 5 5 4 7 6 4 4 1 5 2 7 7 7 11 6 6 6 7 11 4 4 6 6 10 14 15 14
Wind_Direction
107 122 130 113 112 120 118 112 106 96 84 62 18 12 23 74 56 46 38 341 332 29 83 74 49 49 53 58 41 108 76 137 164 172 157 161 145 71 74 118 80 16 146 147 157
114 135 119 113 122 126 113 113 103 81 55 20 19 7 8 357 38 40 359 356 17 62 84 59 29 38 53 28 24 53 81 127 98 133 153 159 155 149 145 133 74 100 105 130 149
122 123 122 123 121 121 116 110 90 56 9 5 18 19 9 0 62 335 358 7 70 83 66 77 74 61 62 31 6 17 92 138 19 102 121 133 130 137 141 197 192 171 159 156 159
115 120 129 124 125 128 116 95 62 35 6 12 9 12 44 60 79 337 356 29 56 51 72 67 42 57 64 51 2 93 42 80 127 108 115 146 135 132 185 151 175 165 161 162 163
120 124 131 132 140 123 101 70 47 38 35 37 46 42 31 45 15 348 27 45 29 41 55 89 61 106 87 88 70 78 114 53 89 89 92 123 132 157 219 134 140 150 164 169 171
121 130 132 143 135 114 89 74 43 54 54 49 66 57 69 78 355 35 59 62 70 77 65 63 100 109 84 57 50 88 97 112 73 114 136 132 148 178 180 145 142 162 179 178 177
131 131 147 140 120 109 86 55 34 37 45 51 57 81 63 134 47 52 57 63 63 79 80 76 115 74 137 103 168 137 88 102 156 179 168 140 198 224 162 167 169 188 185 184 179
132 141 144 135 123 88 51 11 21 25 30 47 59 82 98 33 39 56 66 75 68 74 85 87 80 92 68 121 59 70 72 92 183 178 133 152 268 175 167 171 191 197 197 188 180
137 138 136 137 95 46 340 29 51 55 56 13 43 91 106 17 26 22 57 78 56 68 71 76 68 91 101 88 62 20 169 236 260 201 136 199 262 169 178 188 201 205 202 197 185
139 133 134 109 80 357 332 106 60 46 360 26 47 56 8 327 336 357 39 51 57 69 45 41 54 77 46 59 233 238 254 255 261 195 205 203 255 206 194 199 212 209 204 205 203
134 134 129 97 4 352 98 326 21 356 35 83 253 114 328 329 56 22 9 68 38 55 39 13 64 82 171 215 159 132 184 256 248 177 201 235 263 252 204 213 223 219 208 212 212
131 137 125 66 28 356 75 83 149 148 74 37 78 70 36 355 49 355 9 69 55 56 345 27 90 199 154 48 171 183 216 267 267 149 198 313 276 255 195 220 220 217 211 212 196
131 137 136 25 38 62 91 101 110 132 95 349 7 44 324 40 77 334 22 88 83 63 21 128 186 245 174 38 45 210 200 246 251 331 219 312 281 278 245 246 218 217 205 207 203
129 122 120 6 91 75 57 72 95 160 74 311 342 351 3 81 50 351 15 106 38 138 123 105 330 123 110 210 129 312 218 297 309 17 286 5 294 300 321 276 230 222 203 203 198
120 77 72 40 116 75 56 342 150 136 24 229 332 338 27 93 247 0 28 32 100 121 109 305 48 57 132 264 151 264 18 337 18 125 9 18 354 270 348 310 271 231 213 204 187
82 57 73 71 72 96 332 358 144 44 264 102 344 355 51 16 29 316 33 41 127 94 40 98 66 82 280 359 120 353 88 55 55 77 326 346 61 282 260 222 282 291 209 179 165
60 44 64 74 84 343 334 39 35 130 22 224 153 52 74 9 37 32 33 19 67 52 358 346 262 46 28 25 26 55 35 336 355 1 257 275 266 254 243 232 248 270 204 172 158
12 22 63 69 36 20 40 47 232 216 203 357 128 83 96 4 28 26 74 62 33 70 96 93 323 40 1 76 160 34 105 132 297 301 299 10 235 257 169 209 265 298 173 158 158
300 305 316 19 15 50 74 64 216 201 170 157 73 104 360 46 121 87 68 169 204 99 142 134 282 76 55 88 53 24 50 157 100 128 307 266 285 274 236 253 260 180 159 170 171
319 313 230 345 20 80 78 230 222 206 144 146 176 176 186 217 160 172 189 198 175 204 209 198 354 81 143 114 51 164 151 87 37 315 299 285 281 248 285 266 227 216 197 187 179
35 38 355 318 125 54 175 227 234 232 176 169 201 144 185 191 187 207 192 188 195 173 178 142 109 255 151 189 174 79 22 48 114 148 208 299 273 216 233 221 231 230 200 191 185
92 15 351 161 64 19 173 199 225 189 164 213 134 133 173 166 170 207 209 236 174 165 163 199 139 253 221 134 27 167 193 162 139 212 166 164 272 189 226 242 242 255 200 186 183
113 235 20 155 171 231 266 250 232 173 209 184 184 198 161 170 202 195 191 138 183 167 168 188 85 354 351 29 9 223 192 129 99 74 203 164 258 175 241 257 248 242 194 178 171
90 6 330 53 11 141 169 227 219 230 201 165 147 115 120 151 116 203 194 228 206 190 125 96 148 173 204 212 146 209 190 181 151 159 182 231 282 285 255 250 233 215 188 176 177
48 235 181 258 288 194 168 154 163 206 230 190 220 211 172 156 163 207 154 142 282 167 85 153 221 189 253 249 218 228 210 181 198 198 205 281 224 274 287 272 254 198 174 177 184
143 139 13 178 176 153 178 219 193 181 158 231 204 183 183 171 191 195 157 197 201 189 175 77 245 172 282 173 192 258 224 204 221 234 261 265 279 276 275 159 217 193 179 192 197
140 126 114 261 145 130 224 220 221 154 218 322 189 132 181 220 153 102 105 73 148 153 177 153 149 110 268 6 312 293 223 185 189 205 177 211 245 162 253 238 230 200 194 197 195